DECAYED

STARLINK-5889, 55953 (Decayed)

Orbit data source: Space-Track

STARLINK-5889, 55953 was a payload satellite owned by SpaceX/Seattle (US) in LEO that was launched on Fri, 17 Mar 2023 UTC via an FALCON 9 launch vehicle from the Air Force Western Test Range (AFWTR). Payload-class satellites include a variety of spacecraft equipped with specific instruments for various scientific and technological missions. These include communications satellites like Starlink; space stations such as the ISS; scientific satellites like the Hubble; Earth observation satellites from companies like Planet Labs, Umbra, and HawkEye 360; GPS; miniature CubeSats for education and research; and military/defense satellites.

Not visible in the next 10 days
Identifier
55953, 2023-037AR
Orbit
Decayed
Country
Flag of USUS
Related business
Manufacturer
SpaceX/Seattle
Mission
Decayed Commercial Communications
Bus & Motor
STARLINK, Unknown motor
Mass
305 kg wet, ~290 kg dry
Launch date (UTC)
2023-03-17 (3 years ago)
Launch vehicle
FALCON 9
Launch site
Air Force Western Test Range (AFWTR)
Object type
Payload
Rocket body
Debris
Shape & HBR
Box + 1 Pan, 10.1 m
Radar Cross Section
11.087 m², Large (>1 m²)

Expand to show TLE details & history
Last TLE update: 1 year ago

TLE from 1 year ago
0 STARLINK-5889
1 55953U 23037AR  25151.25170095  .15958249  44855-5  20085-3 0  9997
2 55953  69.9806 236.2601 0009371 261.3168 126.9931 16.49158089123002
Epoch: 2025-05-31T06:02Z
TLE epoch observation values (Epoch: 2025-05-31T06:02:26.962Z)
Latitude
26.59222°
Longitude
-92.89916°
Altitude
148.074 km
Speed
7.818 km/s
True Right ascension
16h 26m 49s
True Declination
26° 26' 31"
Sunlit
Object was in full shadow at epoch
Visualization orbit readout
Latitude
Unknown
Longitude
Unknown
Altitude
Unknown
Speed
Unknown
Apparent Right ascension
Unknown
Apparent Declination
Unknown
Sunlit
N/A
Visualization observer readout
Local Sidereal Time
21:31:31
Azimuth
Unknown
Elevation
Unknown
Doppler factor
Unknown
Orbital elements
Apogee altitude
145.476 km
Perigee altitude
133.26 km
Semi-major axis
6,517.505 km
Eccentricity
0.00094
Inclination
69.9806°
RAAN
236.2601°
Arg. of periapsis
261.3168°
True anomaly
127.07881°
Mean anomaly
126.9931°
Eccentric anomaly
127.03596°
Mean motion
4.12497 °/min
Orbital period
87.27 mins
BSTAR
0.00020085
Loading maneuver chart data...
Computing Atmospheric mass density...
Loading historical data...
Loading historical data...
Loading historical data...
Loading historical data...
Loading historical data...
Loading historical data...
Loading historical data...

Documentation

Showing up to 5 results
|